Voltar ao catálogo

STARLINK-6168

AtivoComunicaçõesVLEO
NORAD 57369·PAYLOAD·🇺🇸 United States

Lançado Jul 16, 2023 de Cape Canaveral Space Force Station

Loading…

Próximas Passagens (próximas 24 horas)

TLE

AtualizadoSource: CelesTrak SupGP

Época: Sep 15, 2026, 03:06 UTC

1 57369C 23099AT  26258.12965278  .00001344  00000+0  40365-4 0  2587
2 57369  43.0010 248.9026 0005650 118.8422 315.8125 15.33587387    19

Acompanhe STARLINK-6168 em tempo real com AllMySat

Download on the App Store